Regional Weather Roundup
Issued by NWS

Home | Current Version | Previous Version | Graphics & Text | Print | Product List | Glossary On
Versions: 1 2 3 4 5 6 7 8 9 10 11 12 13 14 15 16 17 18 19 20 21 22 23 24 25 26 27 28 29 30 31 32 33 34 35 36 37 38 39 40 41 42 43 44 45 46 47 48 49 50
000
ASUS45 KCYS 240710
RWRWY

WYOMING REGIONAL WEATHER ROUNDUP
NATIONAL WEATHER SERVICE CHEYENNE WY
1200 AM MST WED DEC 24 2014

NOTE:  "FAIR" INDICATES FEW OR NO CLOUDS BELOW 12,000 FEET
WITH NO SIGNIFICANT WEATHER AND/OR OBSTRUCTIONS TO VISIBILITY.

WYZ001-240800-
YELLOWSTONE NATIONAL PARK

CITY           SKY/WX    TMP DP  RH WIND       PRES   REMARKS
LK YELLOWSTONE   N/A     17  14  88 CALM      30.16F
W YELLOWSTONE  NOT AVBL

$$
WYZ002>013-054>058-071-098>099-240800-
NORTHERN WYOMING

CITY           SKY/WX    TMP DP  RH WIND       PRES   REMARKS
JACKSON        CLOUDY    12  10  92 N6        30.20F WCI   3
CODY           FAIR      36  18  48 W26G37    29.96F WCI  23
GREYBULL       FAIR      19  15  84 CALM      30.08S
WORLAND        FAIR       8   3  80 S8        30.06F WCI  -4
SHERIDAN       FAIR      22  11  62 S3        29.93F
BUFFALO        FAIR      25   4  40 S6        29.94F WCI  18
GILLETTE       FAIR      26  12  55 SW16      29.96F WCI  14
HULETT           N/A    N/A N/A N/A MISG        N/A
NEWCASTLE      FAIR      12  10  92 CALM      30.04F

$$
WYZ014>020-022>026-101>103-240800-
CENTRAL WYOMING

CITY           SKY/WX    TMP DP  RH WIND       PRES   REMARKS
BIG PINEY      FAIR      15   7  70 N8        30.16F WCI   4
PINEDALE       FAIR      19  12  73 NW10      30.14F WCI   8
DUBOIS         NOT AVBL
LANDER         FAIR      15   3  59 SE3       30.03F
RIVERTON       FAIR      15   6  67 W6        30.05F WCI   6
CASPER         FAIR      21   9  59 SW20      30.03F WCI   6
DOUGLAS        FAIR      11   7  84 CALM      30.03F

$$
WYZ021-027>030-104>119-240800-
SOUTHERN WYOMING

CITY           SKY/WX    TMP DP  RH WIND       PRES   REMARKS
EVANSTON       FAIR      15  11  83 SW9       30.23F WCI   3
FORT BRIDGER   FAIR      20   8  59 SW9       30.24F WCI   9
ROCK SPRINGS   FAIR      18   9  68 SW21      30.17  WCI   1
DIXON          FAIR      -2  -6  84 CALM      30.24F
RAWLINS        FAIR      17   7  64 N9        30.12F WCI   6
SARATOGA       FAIR       7   3  85 SE6       30.14F WCI  -3
LARAMIE        FAIR       4  -1  80 E6        30.01F WCI  -7
CHEYENNE       FAIR      19   5  54 NW10      30.01F WCI   7
TORRINGTON     FAIR      20  13  74 CALM      30.06F
PINE BLUFFS    FAIR      12   9  85 W7        30.06F WCI   2

$$



USA.gov is the U.S. government's official web portal to all federal, state and local government web resources and services.